Shenandoah, IA

1:19 AM CST on February 07, 2016 (GMT -0600)
Shenandoah Municipal

Weather History for KSDA - October, 2012

Change the Weather History Date:

Wednesday, October 3, 2012

  Actual Average (KOMA) Record (KOMA)
Temperature  
Mean Temperature 62 °F 58 °F  
Max Temperature 84 °F 70 °F 96 °F (1938)
Min Temperature 39 °F 46 °F 31 °F (1980)
Degree Days  
Heating Degree Days 4 8  
Month to date heating degree days 23  
Since 1 July heating degree days 126  
Cooling Degree Days 0 1  
Month to date cooling degree days 3  
Year to date cooling degree days 1100  
Growing Degree Days 12 (Base 50)    
Moisture  
Dew Point 30 °F    
Average Humidity 45    
Maximum Humidity 87    
Minimum Humidity 5    
Precipitation  
Precipitation 0.00 in 0.08 in 2.87 in (1884)
Month to date precipitation 0.25  
Year to date precipitation 26.04  
Snow  
Snow 0.00 in 0.00 in - ()
Month to date snowfall 0.0  
Since 1 July snowfall 0.0  
Snow Depth -    
Sea Level Pressure  
Sea Level Pressure 29.90 in    
Wind  
Wind Speed 5 mph (South)    
Max Wind Speed 21 mph    
Max Gust Speed 26 mph    
Visibility 9 miles    
Events      
T = Trace of Precipitation, MM = Missing Value Source: NWS Daily Summary

Daily Weather History Graph

Daily Weather History Graph

Search for Another Location

Airport or City:

Trip Planner

Search our weather history database for the weather conditions in past years. The results will help you decide how hot, cold, wet, or windy it might be!

Date:

Astronomy

Oct. 03, 2012 Rise Set
Actual Time 7:20 AM CDT 6:59 PM CDT
Civil Twilight 6:53 AM CDT 7:26 PM CDT
Nautical Twilight 6:21 AM CDT 7:58 PM CDT
Astronomical Twilight 5:49 AM CDT 8:30 PM CDT
Moon 8:51 PM CDT (10/3) 10:46 AM CDT (10/3)
Length of Visible Light 12h 33m
Length of Day
11h 38m
Waning Gibbous, 88% of the Moon is Illuminated
Oct 3
Waning Gibbous
Oct 8
Last Quarter
Oct 15
New
Oct 21
First Quarter
Oct 29
Full

Hourly Weather History & Observations

Time (CDT) Temp. Windchill Dew Point Humidity Pressure Visibility Wind Dir Wind Speed Gust Speed Precip Events Conditions
12:15 AM 42.8 °F - 37.4 °F 81% 29.91 in 10.0 mi Calm Calm - N/A   Scattered Clouds
12:35 AM 46.4 °F - 39.2 °F 76% 29.91 in 10.0 mi Calm Calm - N/A   Scattered Clouds
12:55 AM 46.4 °F - 39.2 °F 76% 29.91 in 10.0 mi Calm Calm - N/A   Scattered Clouds
1:15 AM 44.6 °F - 37.4 °F 76% 29.91 in 10.0 mi Calm Calm - N/A   Scattered Clouds
1:35 AM 44.6 °F - 37.4 °F 76% 29.92 in 10.0 mi Calm Calm - N/A   Scattered Clouds
1:55 AM 42.8 °F - 37.4 °F 81% 29.92 in 10.0 mi Calm Calm - N/A   Scattered Clouds
2:15 AM 42.8 °F - 37.4 °F 81% 29.92 in 10.0 mi Calm Calm - N/A   Scattered Clouds
2:35 AM 44.6 °F - 37.4 °F 76% 29.92 in 10.0 mi Calm Calm - N/A   Scattered Clouds
2:55 AM 42.8 °F - 37.4 °F 81% 29.93 in 10.0 mi Calm Calm - N/A   Scattered Clouds
3:15 AM 42.8 °F - 37.4 °F 81% 29.92 in 10.0 mi Calm Calm - N/A   Scattered Clouds
3:35 AM 42.8 °F - 37.4 °F 81% 29.92 in 10.0 mi Calm Calm - N/A   Scattered Clouds
3:55 AM 42.8 °F - 37.4 °F 81% 29.92 in 10.0 mi Calm Calm - N/A   Scattered Clouds
4:15 AM 42.8 °F - 39.2 °F 87% 29.92 in 10.0 mi Calm Calm - N/A   Scattered Clouds
4:35 AM 42.8 °F - 37.4 °F 81% 29.92 in 7.0 mi Calm Calm - N/A   Scattered Clouds
4:55 AM 42.8 °F 41.1 °F 37.4 °F 81% 29.92 in 7.0 mi NE 3.5 mph - N/A   Scattered Clouds
5:15 AM 41.0 °F - 35.6 °F 81% 29.93 in 5.0 mi Calm Calm - N/A   Haze
5:35 AM 41.0 °F - 37.4 °F 87% 29.93 in 7.0 mi Calm Calm - N/A   Scattered Clouds
5:55 AM 39.2 °F - 35.6 °F 87% 29.94 in 10.0 mi Calm Calm - N/A   Scattered Clouds
6:15 AM 39.2 °F - 35.6 °F 87% 29.94 in 3.0 mi Calm Calm - N/A   Scattered Clouds
6:35 AM 39.2 °F - 35.6 °F 87% 29.94 in 5.0 mi Calm Calm - N/A   Scattered Clouds
6:55 AM 41.0 °F - 35.6 °F 81% 29.94 in 7.0 mi Calm Calm - N/A   Scattered Clouds
7:15 AM 39.2 °F - 33.8 °F 81% 29.94 in 7.0 mi Calm Calm - N/A   Scattered Clouds
7:35 AM 39.2 °F - 35.6 °F 87% 29.95 in 3.0 mi Calm Calm - N/A   Haze
7:55 AM 39.2 °F 35.9 °F 35.6 °F 87% 29.95 in 7.0 mi NE 4.6 mph - N/A   Clear
8:15 AM 41.0 °F 39.0 °F 37.4 °F 87% 29.95 in 7.0 mi NNE 3.5 mph - N/A   Clear
8:35 AM 44.6 °F - 41.0 °F 87% 29.95 in 10.0 mi Calm Calm - N/A   Clear
8:55 AM 48.2 °F - 42.8 °F 82% 29.95 in 10.0 mi Calm Calm - N/A   Clear
9:15 AM 55.4 °F - 44.6 °F 67% 29.95 in 10.0 mi Calm Calm - N/A   Clear
9:35 AM 60.8 °F - 44.6 °F 55% 29.95 in 10.0 mi SSE 3.5 mph - N/A   Clear
9:55 AM 64.4 °F - 39.2 °F 40% 29.94 in 10.0 mi South 5.8 mph - N/A   Clear
10:15 AM 69.8 °F - 35.6 °F 28% 29.94 in 10.0 mi SSW 8.1 mph - N/A   Clear
10:35 AM 71.6 °F - 33.8 °F 25% 29.93 in 10.0 mi SSW 8.1 mph - N/A   Clear
10:55 AM 73.4 °F - 32.0 °F 22% 29.93 in 10.0 mi South 11.5 mph - N/A   Clear
11:15 AM 75.2 °F - 28.4 °F 18% 29.93 in 10.0 mi SSW 13.8 mph - N/A   Clear
11:35 AM 77.0 °F - 26.6 °F 16% 29.92 in 10.0 mi SSW 12.7 mph - N/A   Clear
11:55 AM 78.8 °F - 24.8 °F 14% 29.92 in 10.0 mi SSW 13.8 mph - N/A   Clear
12:15 PM 78.8 °F - 24.8 °F 14% 29.91 in 10.0 mi South 17.3 mph 21.9 mph N/A   Clear
12:55 PM 80.6 °F - 21.2 °F 11% 29.89 in 10.0 mi SSW 13.8 mph - N/A   Clear
1:15 PM 80.6 °F - 19.4 °F 10% 29.88 in 10.0 mi South 13.8 mph 21.9 mph N/A   Clear
1:35 PM 80.6 °F - 19.4 °F 10% 29.88 in 10.0 mi South 20.7 mph 24.2 mph N/A   Clear
1:55 PM 82.4 °F - 10.4 °F 7% 29.87 in 10.0 mi SSW 18.4 mph 24.2 mph N/A   Clear
2:15 PM 82.4 °F - 12.2 °F 7% 29.86 in 10.0 mi South 16.1 mph 21.9 mph N/A   Clear
2:35 PM 82.4 °F - 12.2 °F 7% 29.86 in 10.0 mi SSW 19.6 mph 25.3 mph N/A   Clear
2:55 PM 82.4 °F - 12.2 °F 7% 29.85 in 10.0 mi South 16.1 mph 26.5 mph N/A   Clear
3:15 PM 82.4 °F - 6.8 °F 6% 29.85 in 10.0 mi SSW 16.1 mph 23.0 mph N/A   Clear
3:35 PM 84.2 °F - 5.0 °F 5% 29.84 in 10.0 mi South 15.0 mph 21.9 mph N/A   Clear
3:55 PM 82.4 °F - 8.6 °F 6% 29.84 in 10.0 mi SSW 15.0 mph 23.0 mph N/A   Clear
4:15 PM 84.2 °F - 6.8 °F 5% 29.84 in 10.0 mi SSW 16.1 mph 21.9 mph N/A   Clear
4:35 PM 82.4 °F - 8.6 °F 6% 29.84 in 10.0 mi SSW 17.3 mph 21.9 mph N/A   Clear
4:55 PM 82.4 °F - 8.6 °F 6% 29.84 in 10.0 mi South 13.8 mph 23.0 mph N/A   Clear
5:15 PM 82.4 °F - 6.8 °F 6% 29.84 in 10.0 mi SSW 15.0 mph - N/A   Clear
5:35 PM 82.4 °F - 8.6 °F 6% 29.84 in 10.0 mi South 15.0 mph - N/A   Clear
5:55 PM 80.6 °F - 12.2 °F 8% 29.84 in 10.0 mi South 11.5 mph - N/A   Clear
6:15 PM 80.6 °F - 15.8 °F 9% 29.84 in 10.0 mi South 15.0 mph 20.7 mph N/A   Clear
6:35 PM 78.8 °F - 19.4 °F 11% 29.85 in 10.0 mi South 10.4 mph - N/A   Clear
6:55 PM 75.2 °F - 21.2 °F 13% 29.85 in 10.0 mi South 9.2 mph - N/A   Scattered Clouds
7:15 PM 73.4 °F - 24.8 °F 16% 29.86 in 10.0 mi South 8.1 mph - N/A   Scattered Clouds
7:35 PM 71.6 °F - 26.6 °F 19% 29.87 in 7.0 mi South 6.9 mph - N/A   Scattered Clouds
8:15 PM 68.0 °F - 30.2 °F 24% 29.88 in 10.0 mi SSE 6.9 mph - N/A   Clear
8:35 PM 66.2 °F - 33.8 °F 30% 29.89 in 10.0 mi SSE 8.1 mph - N/A   Scattered Clouds
8:55 PM 64.4 °F - 35.6 °F 34% 29.88 in 10.0 mi SSE 8.1 mph - N/A   Scattered Clouds
9:15 PM 66.2 °F - 35.6 °F 32% 29.89 in 10.0 mi SSE 9.2 mph - N/A   Scattered Clouds
9:35 PM 66.2 °F - 37.4 °F 35% 29.90 in 10.0 mi SSE 6.9 mph - N/A   Scattered Clouds
9:55 PM 64.4 °F - 39.2 °F 40% 29.90 in 10.0 mi SSE 8.1 mph - N/A   Scattered Clouds
10:15 PM 66.2 °F - 37.4 °F 35% 29.91 in 10.0 mi South 11.5 mph - N/A   Scattered Clouds
10:35 PM 66.2 °F - 39.2 °F 37% 29.91 in 10.0 mi South 10.4 mph - N/A   Clear
10:55 PM 66.2 °F - 39.2 °F 37% 29.92 in 10.0 mi SSE 10.4 mph - N/A   Clear
11:15 PM 64.4 °F - 39.2 °F 40% 29.92 in 10.0 mi SSE 10.4 mph - N/A   Scattered Clouds
11:35 PM 64.4 °F - 41.0 °F 42% 29.93 in 10.0 mi South 9.2 mph - N/A   Scattered Clouds
11:55 PM 64.4 °F - 42.8 °F 45% 29.93 in 10.0 mi SSE 8.1 mph - N/A   Scattered Clouds